| time (UTC) | temp F | wind direction | speed MPH | gust MPH | rain 1hr in | rain 24hr in | rain mn in | humidity % | barometer mb |
| 20260902111125 | 58 | 37 | 2.0 | 4.0 | 0.00 | 0.00 | 0.00 | 82 | 1024.7 |
| 20260902110128 | 58 | 45 | 0.0 | 1.0 | 0.00 | 0.00 | 0.00 | 84 | 1024.9 |
| 20260902105126 | 57 | 45 | 0.0 | 0.0 | 0.00 | 0.00 | 0.00 | 84 | 1024.7 |
| 20260902105028 | 57 | 45 | 0.0 | 1.0 | 0.00 | 0.00 | 0.00 | 84 | 1024.6 |
| 20260902104127 | 57 | 90 | 0.0 | 0.0 | 0.00 | 0.00 | 0.00 | 83 | 1024.7 |
| 20260902103128 | 57 | 67 | 0.0 | 0.0 | 0.00 | 0.00 | 0.00 | 85 | 1024.7 |
| 20260902102126 | 56 | 45 | 1.0 | 1.0 | 0.00 | 0.00 | 0.00 | 85 | 1024.6 |
| 20260902101129 | 56 | 90 | 0.0 | 0.0 | 0.00 | 0.00 | 0.00 | 85 | 1024.5 |
| 20260902100226 | 56 | 90 | 0.0 | 0.0 | 0.00 | 0.00 | 0.00 | 86 | 1024.4 |
| 20260902095228 | 56 | 90 | 0.0 | 0.0 | 0.00 | 0.00 | 0.00 | 86 | 1024.4 |
| 20260902094326 | 56 | 90 | 0.0 | 1.0 | 0.00 | 0.00 | 0.00 | 85 | 1024.2 |
| 20260902093326 | 56 | 90 | 0.0 | 0.0 | 0.00 | 0.00 | 0.00 | 85 | 1024.3 |
| 20260902092326 | 56 | 90 | 0.0 | 0.0 | 0.00 | 0.00 | 0.00 | 83 | 1024.2 |
| 20260902092226 | 56 | 90 | 0.0 | 0.0 | 0.00 | 0.00 | 0.00 | 83 | 1024.2 |
| 20260902091226 | 56 | 90 | 0.0 | 0.0 | 0.00 | 0.00 | 0.00 | 82 | 1024.3 |
| 20260902090226 | 57 | 90 | 0.0 | 1.0 | 0.00 | 0.00 | 0.00 | 82 | 1024.3 |
| 20260902084226 | 57 | 90 | 0.0 | 1.0 | 0.00 | 0.00 | 0.00 | 79 | 1024.0 |
| 20260902084126 | 57 | 90 | 0.0 | 1.0 | 0.00 | 0.00 | 0.00 | 80 | 1024.0 |
| 20260902083126 | 57 | 90 | 0.0 | 1.0 | 0.00 | 0.00 | 0.00 | 79 | 1024.0 |
| 20260902082226 | 58 | 90 | 0.0 | 0.0 | 0.00 | 0.00 | 0.00 | 78 | 1024.0 |
| 20260902081225 | 58 | 90 | 0.0 | 0.0 | 0.00 | 0.00 | 0.00 | 78 | 1024.0 |
| 20260902081127 | 58 | 90 | 0.0 | 0.0 | 0.00 | 0.00 | 0.00 | 78 | 1024.0 |
| 20260902075025 | 59 | 90 | 2.0 | 2.0 | 0.00 | 0.00 | 0.00 | 77 | 1023.9 |
| 20260902074026 | 59 | 102 | 5.0 | 6.0 | 0.00 | 0.00 | 0.00 | 77 | 1023.5 |
| 20260902073027 | 59 | 67 | 2.0 | 3.0 | 0.00 | 0.00 | 0.00 | 76 | 1023.5 |
| 20260902072026 | 59 | 135 | 0.0 | 0.0 | 0.00 | 0.00 | 0.00 | 75 | 1023.7 |
| 20260902071027 | 59 | 135 | 1.0 | 2.0 | 0.00 | 0.00 | 0.00 | 75 | 1023.5 |
| 20260902064028 | 60 | 135 | 3.0 | 3.0 | 0.00 | 0.00 | 0.00 | 72 | 1023.5 |
| 20260902063126 | 60 | 90 | 1.0 | 2.0 | 0.00 | 0.00 | 0.00 | 72 | 1023.4 |
| 20260902062125 | 60 | 135 | 4.0 | 6.0 | 0.00 | 0.00 | 0.00 | 70 | 1023.4 |
| 20260902061225 | 60 | 135 | 5.0 | 6.0 | 0.00 | 0.00 | 0.00 | 70 | 1023.3 |
| 20260902060228 | 61 | 135 | 1.0 | 2.0 | 0.00 | 0.00 | 0.00 | 68 | 1023.3 |
| 20260902055226 | 61 | 135 | 2.0 | 3.0 | 0.00 | 0.00 | 0.00 | 68 | 1023.4 |
| 20260902054227 | 61 | 90 | 0.0 | 1.0 | 0.00 | 0.00 | 0.00 | 66 | 1023.2 |
| 20260902053325 | 61 | 135 | 2.0 | 3.0 | 0.00 | 0.00 | 0.00 | 66 | 1023.0 |
| 20260902051426 | 61 | 135 | 3.0 | 4.0 | 0.00 | 0.00 | 0.00 | 65 | 1023.1 |
| 20260902050445 | 61 | 136 | 3.0 | 3.0 | 0.00 | 0.00 | 0.00 | 65 | 1022.9 |
| 20260902045427 | 61 | 135 | 3.0 | 4.0 | 0.00 | 0.00 | 0.00 | 65 | 1022.9 |
| 20260902044427 | 60 | 157 | 2.0 | 2.0 | 0.00 | 0.00 | 0.00 | 65 | 1022.7 |
| 20260902043426 | 60 | 135 | 3.0 | 5.0 | 0.00 | 0.00 | 0.00 | 68 | 1022.5 |
| 20260902042425 | 58 | 135 | 3.0 | 4.0 | 0.00 | 0.00 | 0.00 | 74 | 1022.7 |
| 20260902041427 | 57 | 180 | 3.0 | 3.0 | 0.00 | 0.00 | 0.00 | 83 | 1022.7 |
| 20260902040427 | 56 | 180 | 2.0 | 2.0 | 0.00 | 0.00 | 0.00 | 83 | 1022.6 |
| 20260902035435 | 58 | 90 | 0.0 | 1.0 | 0.00 | 0.00 | 0.00 | 79 | 1022.6 |
| 20260902034434 | 59 | 90 | 4.0 | 5.0 | 0.00 | 0.00 | 0.00 | 74 | 1022.5 |
| 20260902032433 | 59 | 225 | 1.0 | 2.0 | 0.00 | 0.00 | 0.00 | 73 | 1022.0 |
| 20260902031433 | 58 | 225 | 0.0 | 0.0 | 0.00 | 0.00 | 0.00 | 74 | 1022.0 |
| 20260902025433 | 59 | 225 | 2.0 | 2.0 | 0.00 | 0.00 | 0.00 | 75 | 1022.0 |
| 20260902024435 | 58 | 225 | 3.0 | 4.0 | 0.00 | 0.00 | 0.00 | 77 | 1022.0 |
| 20260902023534 | 58 | 247 | 2.0 | 3.0 | 0.00 | 0.00 | 0.00 | 77 | 1021.9 |
| 20260902022632 | 58 | 247 | 1.0 | 1.0 | 0.00 | 0.00 | 0.00 | 78 | 1021.8 |
| 20260902022533 | 58 | 247 | 1.0 | 2.0 | 0.00 | 0.00 | 0.00 | 78 | 1021.8 |
| 20260902021538 | 58 | 247 | 1.0 | 1.0 | 0.00 | 0.00 | 0.00 | 78 | 1021.8 |
| 20260902020534 | 59 | 90 | 0.0 | 1.0 | 0.00 | 0.00 | 0.00 | 77 | 1021.6 |
| 20260902015534 | 58 | 90 | 0.0 | 1.0 | 0.00 | 0.00 | 0.00 | 81 | 1021.8 |
| 20260902015433 | 58 | 90 | 0.0 | 0.0 | 0.00 | 0.00 | 0.00 | 82 | 1021.7 |
| 20260902014436 | 59 | 90 | 1.0 | 1.0 | 0.00 | 0.00 | 0.00 | 80 | 1021.5 |
| 20260902013433 | 60 | 90 | 0.0 | 0.0 | 0.00 | 0.00 | 0.00 | 78 | 1021.6 |
| 20260902013334 | 60 | 90 | 1.0 | 2.0 | 0.00 | 0.00 | 0.00 | 77 | 1021.6 |
| 20260902011432 | 62 | 90 | 0.0 | 0.0 | 0.00 | 0.00 | 0.00 | 72 | 1021.6 |
| 20260902011333 | 62 | 90 | 0.0 | 0.0 | 0.00 | 0.00 | 0.00 | 71 | 1021.6 |
| 20260902010335 | 61 | 90 | 0.0 | 1.0 | 0.00 | 0.00 | 0.00 | 68 | 1021.6 |
| 20260902005334 | 63 | 90 | 3.0 | 4.0 | 0.00 | 0.00 | 0.00 | 65 | 1021.5 |
| 20260902004335 | 63 | 180 | 3.0 | 5.0 | 0.00 | 0.00 | 0.00 | 65 | 1021.5 |
| 20260902003432 | 63 | 202 | 4.0 | 5.0 | 0.00 | 0.00 | 0.00 | 64 | 1021.4 |
| 20260902002434 | 63 | 180 | 2.0 | 4.0 | 0.00 | 0.00 | 0.00 | 65 | 1021.3 |
| 20260902001434 | 63 | 180 | 3.0 | 4.0 | 0.00 | 0.00 | 0.00 | 64 | 1021.5 |
| 20260902000337 | 63 | 172 | 3.0 | 4.0 | 0.00 | 0.00 | 0.00 | 64 | 1021.4 |
| 20260901235334 | 63 | 135 | 2.0 | 3.0 | 0.00 | 0.00 | 0.00 | 64 | 1021.5 |
| 20260901235234 | 63 | 149 | 2.0 | 3.0 | 0.00 | 0.00 | 0.00 | 64 | 1021.4 |
| 20260901234332 | 63 | 173 | 3.0 | 3.0 | 0.00 | 0.00 | 0.00 | 64 | 1021.4 |
| 20260901233335 | 63 | 180 | 2.0 | 4.0 | 0.00 | 0.00 | 0.00 | 63 | 1021.2 |
| 20260901233232 | 63 | 185 | 4.0 | 5.0 | 0.00 | 0.00 | 0.00 | 62 | 1021.2 |
| 20260901232233 | 63 | 180 | 0.0 | 1.0 | 0.00 | 0.00 | 0.00 | 62 | 1021.1 |
| 20260901230335 | 64 | 150 | 2.0 | 4.0 | 0.00 | 0.00 | 0.00 | 62 | 1020.9 |
| 20260901225334 | 65 | 171 | 5.0 | 7.0 | 0.00 | 0.00 | 0.00 | 61 | 1020.7 |
| 20260901224335 | 66 | 161 | 3.0 | 4.0 | 0.00 | 0.00 | 0.00 | 60 | 1020.8 |
| 20260901223335 | 66 | 112 | 2.0 | 3.0 | 0.00 | 0.00 | 0.00 | 58 | 1020.7 |
| 20260901221434 | 67 | 204 | 3.0 | 7.0 | 0.00 | 0.00 | 0.00 | 57 | 1020.5 |
| 20260901220532 | 68 | 180 | 4.0 | 6.0 | 0.00 | 0.00 | 0.00 | 55 | 1020.5 |
| 20260901215533 | 68 | 154 | 1.0 | 4.0 | 0.00 | 0.00 | 0.00 | 56 | 1020.3 |
| 20260901214536 | 69 | 167 | 4.0 | 6.0 | 0.00 | 0.00 | 0.00 | 55 | 1020.2 |
| 20260901214432 | 69 | 164 | 6.0 | 10.0 | 0.00 | 0.00 | 0.00 | 55 | 1020.2 |
| 20260901214336 | 69 | 181 | 3.0 | 6.0 | 0.00 | 0.00 | 0.00 | 56 | 1020.1 |
| 20260901213433 | 69 | 156 | 3.0 | 5.0 | 0.00 | 0.00 | 0.00 | 55 | 1020.2 |
| 20260901212432 | 69 | 212 | 2.0 | 4.0 | 0.00 | 0.00 | 0.00 | 53 | 1020.0 |
| 20260901211435 | 70 | 201 | 3.0 | 5.0 | 0.00 | 0.00 | 0.00 | 54 | 1020.0 |
| 20260901205550 | 68 | 151 | 5.0 | 9.0 | 0.00 | 0.00 | 0.00 | 53 | 1020.1 |
| 20260901203732 | 69 | 108 | 2.0 | 7.0 | 0.00 | 0.00 | 0.00 | 53 | 1019.9 |
| 20260901203633 | 69 | 138 | 7.0 | 13.0 | 0.00 | 0.00 | 0.00 | 52 | 1020.0 |
| 20260901203535 | 69 | 148 | 6.0 | 12.0 | 0.00 | 0.00 | 0.00 | 52 | 1020.0 |
| 20260901202632 | 70 | 163 | 5.0 | 9.0 | 0.00 | 0.00 | 0.00 | 52 | 1020.0 |
| 20260901200633 | 70 | 150 | 6.0 | 10.0 | 0.00 | 0.00 | 0.00 | 53 | 1020.2 |
| 20260901194634 | 68 | 125 | 9.0 | 13.0 | 0.00 | 0.00 | 0.00 | 54 | 1020.1 |
| 20260901193732 | 68 | 160 | 4.0 | 14.0 | 0.00 | 0.00 | 0.00 | 54 | 1020.0 |
| 20260901192733 | 68 | 130 | 5.0 | 10.0 | 0.00 | 0.00 | 0.00 | 55 | 1020.2 |
| 20260901191733 | 69 | 115 | 6.0 | 11.0 | 0.00 | 0.00 | 0.00 | 52 | 1020.2 |
| 20260901185833 | 69 | 119 | 8.0 | 13.0 | 0.00 | 0.00 | 0.00 | 53 | 1020.0 |
| 20260901184833 | 69 | 125 | 8.0 | 13.0 | 0.00 | 0.00 | 0.00 | 53 | 1019.9 |
| 20260901184735 | 69 | 129 | 7.0 | 11.0 | 0.00 | 0.00 | 0.00 | 53 | 1020.0 |
| 20260901183733 | 69 | 97 | 8.0 | 13.0 | 0.00 | 0.00 | 0.00 | 51 | 1019.9 |
| 20260901181733 | 68 | 126 | 6.0 | 9.0 | 0.00 | 0.00 | 0.00 | 52 | 1019.9 |
| 20260901175832 | 68 | 139 | 7.0 | 11.0 | 0.00 | 0.00 | 0.00 | 54 | 1020.1 |
| 20260901173835 | 67 | 143 | 7.0 | 11.0 | 0.00 | 0.00 | 0.00 | 59 | 1020.0 |
| 20260901172834 | 67 | 139 | 7.0 | 11.0 | 0.00 | 0.00 | 0.00 | 62 | 1020.1 |
| 20260901172736 | 67 | 110 | 7.0 | 10.0 | 0.00 | 0.00 | 0.00 | 62 | 1020.1 |
| 20260901171733 | 67 | 127 | 6.0 | 11.0 | 0.00 | 0.00 | 0.00 | 64 | 1020.1 |
| 20260901164834 | 67 | 114 | 6.0 | 10.0 | 0.00 | 0.00 | 0.00 | 63 | 1020.0 |
| 20260901162934 | 67 | 127 | 6.0 | 9.0 | 0.00 | 0.00 | 0.00 | 63 | 1020.0 |
| 20260901162033 | 67 | 153 | 4.0 | 6.0 | 0.00 | 0.00 | 0.00 | 63 | 1020.2 |
| 20260901161033 | 68 | 132 | 2.0 | 5.0 | 0.00 | 0.00 | 0.00 | 61 | 1020.1 |
| 20260901160036 | 68 | 147 | 3.0 | 8.0 | 0.00 | 0.00 | 0.00 | 61 | 1020.0 |
| 20260901155034 | 67 | 148 | 7.0 | 10.0 | 0.00 | 0.00 | 0.00 | 63 | 1020.1 |
| 20260901154034 | 66 | 132 | 7.0 | 9.0 | 0.00 | 0.00 | 0.00 | 66 | 1020.2 |
| 20260901153132 | 66 | 133 | 7.0 | 11.0 | 0.00 | 0.00 | 0.00 | 64 | 1020.1 |
| 20260901153037 | 67 | 132 | 2.0 | 5.0 | 0.00 | 0.00 | 0.00 | 63 | 1020.1 |
| 20260901152033 | 67 | 123 | 4.0 | 9.0 | 0.00 | 0.00 | 0.00 | 63 | 1020.2 |
| 20260901151032 | 66 | 98 | 2.0 | 4.0 | 0.00 | 0.00 | 0.00 | 65 | 1020.2 |
| 20260901150036 | 67 | 111 | 6.0 | 7.0 | 0.00 | 0.00 | 0.00 | 64 | 1020.1 |
| 20260901145034 | 67 | 135 | 3.0 | 7.0 | 0.00 | 0.00 | 0.00 | 63 | 1020.1 |
| 20260901144132 | 67 | 94 | 5.0 | 8.0 | 0.00 | 0.00 | 0.00 | 63 | 1020.2 |
| 20260901143134 | 68 | 93 | 4.0 | 7.0 | 0.00 | 0.00 | 0.00 | 61 | 1020.2 |
| 20260901142133 | 68 | 117 | 4.0 | 7.0 | 0.00 | 0.00 | 0.00 | 60 | 1020.2 |
| 20260901141133 | 68 | 102 | 3.0 | 5.0 | 0.00 | 0.00 | 0.00 | 60 | 1020.2 |
| 20260901141033 | 68 | 106 | 4.0 | 6.0 | 0.00 | 0.00 | 0.00 | 60 | 1020.1 |
| 20260901140037 | 68 | 112 | 2.0 | 5.0 | 0.00 | 0.00 | 0.00 | 60 | 1020.1 |
| 20260901135035 | 68 | 104 | 5.0 | 11.0 | 0.00 | 0.00 | 0.00 | 61 | 1019.9 |
| 20260901134033 | 67 | 95 | 2.0 | 4.0 | 0.00 | 0.00 | 0.00 | 63 | 1019.9 |
| 20260901133034 | 67 | 114 | 2.0 | 6.0 | 0.00 | 0.00 | 0.00 | 63 | 1020.0 |
| 20260901132033 | 67 | 85 | 2.0 | 4.0 | 0.00 | 0.00 | 0.00 | 63 | 1019.8 |
| 20260901131052 | 67 | 37 | 2.0 | 4.0 | 0.00 | 0.00 | 0.00 | 62 | 1019.8 |
| 20260901130035 | 67 | 130 | 0.0 | 2.0 | 0.00 | 0.00 | 0.00 | 63 | 1019.9 |
| 20260901124033 | 66 | 225 | 0.0 | 0.0 | 0.00 | 0.00 | 0.00 | 67 | 1019.8 |
| 20260901123132 | 65 | 225 | 0.0 | 1.0 | 0.00 | 0.00 | 0.00 | 67 | 1019.9 |
| 20260901122135 | 63 | 67 | 1.0 | 2.0 | 0.00 | 0.00 | 0.00 | 69 | 1020.0 |
| 20260901121233 | 62 | 135 | 0.0 | 0.0 | 0.00 | 0.00 | 0.00 | 68 | 1019.9 |
| 20260901120233 | 62 | 45 | 1.0 | 2.0 | 0.00 | 0.00 | 0.00 | 72 | 1019.9 |
| 20260901115234 | 62 | 45 | 0.0 | 1.0 | 0.00 | 0.00 | 0.00 | 74 | 1019.8 |
| 20260901113334 | 62 | 45 | 0.0 | 0.0 | 0.00 | 0.00 | 0.00 | 72 | 1019.8 |
| 20260901113234 | 62 | 45 | 0.0 | 2.0 | 0.00 | 0.00 | 0.00 | 71 | 1019.8 |
| 20260901112332 | 63 | 360 | 0.0 | 0.0 | 0.00 | 0.00 | 0.00 | 68 | 1019.5 |